Comisión Nacional del Agua
Subdirección General Técnica
Estación: San Agustín
Clave: C03125
Estado: Baja California Sur
Municipio: La Paz

Fecha, Precipitación(mm), Temperatura Media(ºC), Temperatura Máxima(ºC), Temperatura Mínima(ºC), Evaporación(mm)
1979/08/01,0.00,26.75,33.50,20.00,
1979/08/02,0.00,27.50,31.50,23.50,
1979/08/03,0.00,25.50,28.50,22.50,
1979/08/04,0.00,26.25,30.00,22.50,
1979/08/05,0.00,26.50,31.50,21.50,
1979/08/06,0.00,26.75,31.50,22.00,
1979/08/07,0.00,27.50,36.50,18.50,
1979/08/08,0.00,27.50,34.50,20.50,
1979/08/09,0.00,26.75,34.50,19.00,
1979/08/10,0.00,26.50,30.50,22.50,
1979/08/11,0.00,26.00,31.50,20.50,
1979/08/12,0.00,24.00,31.50,16.50,
1979/08/13,0.00,27.75,38.00,17.50,
1979/08/14,0.00,25.75,31.00,20.50,
1979/08/15,0.00,24.75,32.00,17.50,
1979/08/16,0.00,28.00,38.50,17.50,
1979/08/17,0.00,24.75,32.00,17.50,
1979/08/18,0.00,25.00,28.50,21.50,
1979/08/19,0.00,23.50,27.00,20.00,
1979/08/20,0.00,28.00,36.00,20.00,
1979/08/21,0.00,27.75,38.00,17.50,
1979/08/22,0.00,22.50,30.00,15.00,
1979/08/23,0.00,22.75,27.50,18.00,
1979/08/24,0.00,27.00,34.00,20.00,
1979/08/25,0.00,27.25,34.00,20.50,
1979/08/26,0.00,21.50,28.00,15.00,
1979/08/27,0.00,23.50,32.00,15.00,
1979/08/28,0.00,24.25,33.50,15.00,
1979/08/29,0.00,24.50,33.50,15.50,
1979/08/30,0.00,23.25,31.50,15.00,
1979/08/31,0.00,24.25,32.00,16.50,
1979/09/01,0.00,28.00,35.50,20.50,
1979/09/02,0.00,23.50,32.00,15.00,
1979/09/03,0.00,28.25,36.00,20.50,
1979/09/04,0.00,25.75,34.00,17.50,
1979/09/05,0.00,29.25,39.00,19.50,
1979/09/06,0.00,30.75,38.50,23.00,
1979/09/07,0.00,30.25,38.50,22.00,
1979/09/08,0.00,26.25,35.50,17.00,
1979/09/09,0.00,31.00,38.00,24.00,
1979/09/10,0.00,29.75,33.50,26.00,
1979/09/11,0.00,28.00,31.00,25.00,
1979/09/12,0.00,32.50,40.00,25.00,
1979/09/13,70.50,31.50,36.00,27.00,
1979/09/14,14.50,28.50,34.00,23.00,
1979/09/15,8.00,28.00,31.00,25.00,
1979/09/16,0.00,26.75,28.50,25.00,
1979/09/17,0.00,24.50,29.00,20.00,
1979/09/18,0.00,22.00,26.50,17.50,
1979/09/19,0.00,23.25,25.50,21.00,
1979/09/20,0.00,23.50,27.00,20.00,
1979/09/21,0.00,25.25,33.50,17.00,
1979/09/22,0.00,26.75,32.50,21.00,
1979/09/23,0.00,29.50,37.00,22.00,
1979/09/24,0.00,28.50,37.00,20.00,
1979/09/25,0.00,27.00,34.00,20.00,
1979/09/26,0.00,27.00,31.50,22.50,
1979/09/27,0.00,26.75,31.50,22.00,
1979/09/28,0.00,27.00,32.00,22.00,
1979/09/29,0.00,27.25,33.50,21.00,
1979/09/30,0.00,26.25,33.50,19.00,
1979/10/01,0.00,27.00,33.00,21.00,
1979/10/02,0.00,27.75,34.00,21.50,
1979/10/03,0.00,28.00,34.50,21.50,
1979/10/04,0.00,25.75,32.00,19.50,
1979/10/05,0.00,26.75,33.00,20.50,
1979/10/06,0.00,28.00,34.50,21.50,
1979/10/07,0.00,27.75,36.50,19.00,
1979/10/08,0.00,27.75,33.50,22.00,
1979/10/09,0.00,28.25,36.00,20.50,
1979/10/10,0.00,27.50,36.50,18.50,
1979/10/11,0.00,28.75,38.50,19.00,
1979/10/12,0.00,29.00,38.50,19.50,
1979/10/13,0.00,27.00,37.50,16.50,
1979/10/14,0.00,29.00,37.50,20.50,
1979/10/15,0.00,28.00,35.50,20.50,
1979/10/16,0.00,25.25,32.00,18.50,
1979/10/17,0.00,24.50,33.50,15.50,
1979/10/18,0.00,24.00,30.50,17.50,
1979/10/19,0.00,26.00,33.50,18.50,
1979/10/20,0.00,25.00,32.50,17.50,
1979/10/21,0.00,25.50,33.50,17.50,
1979/10/22,0.00,25.25,34.50,16.00,
1979/10/23,0.00,25.00,31.50,18.50,
1979/10/24,0.00,24.00,32.50,15.50,
1979/10/25,0.00,26.00,34.50,17.50,
1979/10/26,0.00,25.00,34.50,15.50,
1979/10/27,0.00,25.25,36.00,14.50,
1979/10/28,0.00,23.50,33.50,13.50,
1979/10/29,0.00,22.50,30.00,15.00,
1979/10/30,0.00,20.50,27.50,13.50,
1979/10/31,0.00,19.50,29.00,10.00,
1979/11/01,0.00,19.75,29.50,10.00,
1979/11/02,0.00,21.50,30.50,12.50,
1979/11/03,0.00,21.75,29.00,14.50,
1979/11/04,0.00,22.00,30.50,13.50,
1979/11/05,0.00,25.00,32.50,17.50,
1979/11/06,0.00,24.75,32.00,17.50,
1979/11/07,0.00,25.25,30.00,20.50,
1979/11/08,0.00,21.50,26.00,17.00,
1979/11/09,0.00,21.50,26.50,16.50,
1979/11/10,0.00,20.25,26.50,14.00,
1979/11/11,0.00,20.00,29.00,11.00,
1979/11/12,0.00,20.00,26.50,13.50,
1979/11/13,0.00,20.50,28.50,12.50,
1979/11/14,0.00,21.75,29.50,14.00,
1979/11/15,0.00,21.50,28.50,14.50,
1979/11/16,0.00,20.50,28.50,12.50,
1979/11/17,0.00,19.75,26.00,13.50,
1979/11/18,0.00,20.00,27.50,12.50,
1979/11/19,0.00,21.25,27.50,15.00,
1979/11/20,0.00,20.75,28.50,13.00,
1979/11/21,0.00,19.25,23.50,15.00,
1979/11/22,0.00,19.00,25.50,12.50,
1979/11/23,0.00,17.00,27.00,7.00,
1979/11/24,0.00,19.00,28.00,10.00,
1979/11/25,0.00,19.50,32.00,7.00,
1979/11/26,0.00,21.25,32.00,10.50,
1979/11/27,0.00,19.25,27.50,11.00,
1979/11/28,0.00,17.25,22.50,12.00,
1979/11/29,0.00,22.00,30.50,13.50,
1979/11/30,0.00,19.75,26.50,13.00,
1979/12/01,0.00,21.50,27.50,15.50,
1979/12/02,0.00,21.50,27.50,15.50,
1979/12/03,0.00,17.50,25.50,9.50,
1979/12/04,0.00,19.50,28.50,10.50,
1979/12/05,0.00,21.75,30.50,13.00,
1979/12/06,0.00,20.50,30.50,10.50,
1979/12/07,0.00,21.75,29.50,14.00,
1979/12/08,0.00,20.00,27.00,13.00,
1979/12/09,0.00,17.75,23.00,12.50,
1979/12/10,0.00,20.75,30.00,11.50,
1979/12/11,0.00,19.00,24.50,13.50,
1979/12/12,0.00,20.00,24.50,15.50,
1979/12/13,0.00,19.00,22.50,15.50,
1979/12/14,0.00,15.00,23.50,6.50,
1979/12/15,0.00,18.00,26.50,9.50,
1979/12/16,0.00,18.25,26.50,10.00,
1979/12/17,0.00,21.25,27.00,15.50,
1979/12/18,0.00,22.00,27.50,16.50,
1979/12/19,0.00,23.00,29.50,16.50,
1979/12/20,0.00,24.00,28.50,19.50,
1979/12/21,0.00,22.75,28.50,17.00,
1979/12/22,0.00,20.50,26.00,15.00,
1979/12/23,0.00,15.75,21.50,10.00,
1979/12/24,0.00,17.00,28.50,5.50,
1979/12/25,0.00,18.00,27.50,8.50,
1979/12/26,0.00,20.50,28.50,12.50,
1979/12/27,0.00,19.75,26.00,13.50,
1979/12/28,0.00,18.50,26.50,10.50,
1979/12/29,0.00,18.00,23.50,12.50,
1979/12/30,0.00,17.50,26.50,8.50,
1979/12/31,0.00,20.00,26.50,13.50,
1980/01/01,0.00,18.50,23.50,13.50,
1980/01/02,0.00,19.00,25.50,12.50,
1980/01/03,0.00,20.00,25.50,14.50,
1980/01/04,0.00,19.75,26.00,13.50,
1980/01/05,0.00,20.00,21.50,18.50,
1980/01/06,0.00,19.00,21.50,16.50,
1980/01/07,0.00,21.00,25.50,16.50,
1980/01/08,0.00,18.00,27.00,9.00,
1980/01/09,0.00,17.50,25.50,9.50,
1980/01/10,0.00,17.25,26.50,8.00,
1980/01/11,0.00,17.00,24.50,9.50,
1980/01/12,0.00,19.50,29.50,9.50,
1980/01/13,0.00,18.00,26.00,10.00,
1980/01/14,0.00,17.75,25.00,10.50,
1980/01/15,0.00,18.50,27.00,10.00,
1980/01/16,0.00,17.25,24.50,10.00,
1980/01/17,0.00,17.50,25.50,9.50,
1980/01/18,0.00,17.50,25.50,9.50,
1980/01/19,0.00,18.50,25.00,12.00,
1980/01/20,0.00,18.75,25.50,12.00,
1980/01/21,0.00,16.75,22.00,11.50,
1980/01/22,0.00,14.50,21.50,7.50,
1980/01/23,0.00,16.50,23.50,9.50,
1980/01/24,0.00,15.00,21.00,9.00,
1980/01/25,0.00,17.00,23.50,10.50,
1980/01/26,0.00,17.75,24.00,11.50,
1980/01/27,0.00,17.00,23.50,10.50,
1980/01/28,0.00,16.75,22.50,11.00,
1980/01/29,0.00,16.75,23.50,10.00,
1980/01/30,0.00,19.50,24.50,14.50,
1980/01/31,0.00,21.25,24.00,18.50,
1980/02/01,0.00,17.25,21.00,13.50,
1980/02/02,0.00,20.75,30.00,11.50,
1980/02/03,0.00,20.00,26.00,14.00,
1980/02/04,0.00,23.00,33.00,13.00,
1980/02/05,0.00,22.25,32.00,12.50,
1980/02/06,0.00,16.75,23.00,10.50,
1980/02/07,0.00,19.00,26.00,12.00,
1980/02/08,0.00,16.75,22.00,11.50,
1980/02/09,0.00,15.00,20.00,10.00,
1980/02/10,0.00,19.00,23.50,14.50,
1980/02/11,0.00,18.50,22.00,15.00,
1980/02/12,0.00,18.00,23.50,12.50,
1980/02/13,7.50,19.25,24.00,14.50,
1980/02/14,0.00,22.75,26.00,19.50,
1980/02/15,0.00,23.50,28.00,19.00,
1980/02/16,0.00,21.50,28.00,15.00,
1980/02/17,0.00,22.25,27.00,17.50,
1980/02/18,0.00,21.75,29.00,14.50,
1980/02/19,0.00,23.50,31.00,16.00,
1980/02/20,0.00,21.25,28.50,14.00,
1980/02/21,0.00,16.75,22.50,11.00,
1980/02/22,0.00,16.25,21.50,11.00,
1980/02/23,0.00,19.00,28.00,10.00,
1980/02/24,0.00,16.75,23.00,10.50,
1980/02/25,0.00,19.75,28.00,11.50,
1980/02/26,0.00,18.50,27.00,10.00,
1980/02/27,0.00,20.25,29.00,11.50,
1980/02/28,0.00,21.50,29.50,13.50,
1980/02/29,0.00,20.25,27.00,13.50,
1980/03/01,0.00,21.50,29.50,13.50,
1980/03/02,0.00,18.50,27.50,9.50,
1980/03/03,0.00,20.50,26.00,15.00,
1980/03/04,0.00,20.75,28.00,13.50,
1980/03/05,0.00,19.25,26.00,12.50,
1980/03/06,0.00,18.25,23.00,13.50,
1980/03/07,0.00,19.00,27.00,11.00,
1980/03/08,0.00,20.25,30.50,10.00,
1980/03/09,0.00,24.50,31.50,17.50,
1980/03/10,0.00,23.50,31.00,16.00,
1980/03/11,0.00,21.00,28.00,14.00,
1980/03/12,0.00,20.25,28.50,12.00,
1980/03/13,0.00,17.00,23.50,10.50,
1980/03/14,0.00,18.25,27.50,9.00,
1980/03/15,0.00,18.50,28.00,9.00,
1980/03/16,0.00,21.75,29.50,14.00,
1980/03/17,0.00,18.25,26.50,10.00,
1980/03/18,0.00,18.00,27.00,9.00,
1980/03/19,0.00,21.00,27.50,14.50,
1980/03/20,0.00,20.25,29.50,11.00,
1980/03/21,0.00,19.75,27.50,12.00,
1980/03/22,0.00,19.75,29.50,10.00,
1980/03/23,0.00,18.50,25.00,12.00,
1980/03/24,0.00,21.25,26.00,16.50,
1980/03/25,0.00,22.75,27.50,18.00,
1980/03/26,0.00,18.50,24.50,12.50,
1980/03/27,0.00,18.00,22.50,13.50,
1980/03/28,0.00,17.50,23.00,12.00,
1980/03/29,0.00,19.75,27.00,12.50,
1980/03/30,0.00,19.25,28.00,10.50,
1980/03/31,0.00,19.25,29.00,9.50,
1980/04/01,0.00,18.25,24.00,12.50,
1980/04/02,0.00,19.75,27.00,12.50,
1980/04/03,0.00,15.25,22.00,8.50,
1980/04/04,0.00,14.50,20.50,8.50,
1980/04/05,0.00,14.00,21.50,6.50,
1980/04/06,0.00,16.00,25.00,7.00,
1980/04/07,0.00,17.00,24.00,10.00,
1980/04/08,0.00,21.50,33.00,10.00,
1980/04/09,0.00,20.75,30.00,11.50,
1980/04/10,0.00,20.75,31.00,10.50,
1980/04/11,0.00,19.75,30.00,9.50,
1980/04/12,0.00,17.75,28.00,7.50,
1980/04/13,0.00,20.25,30.00,10.50,
1980/04/14,0.00,19.50,28.50,10.50,
1980/04/15,0.00,22.00,32.50,11.50,
1980/04/16,0.00,19.75,29.00,10.50,
1980/04/17,0.00,17.75,26.50,9.00,
1980/04/18,0.00,17.00,24.50,9.50,
1980/04/19,0.00,20.25,30.00,10.50,
1980/04/20,0.00,22.75,30.00,15.50,
1980/04/21,0.00,23.75,33.50,14.00,
1980/04/22,0.00,22.50,32.50,12.50,
1980/04/23,0.00,21.75,30.00,13.50,
1980/04/24,0.00,20.25,29.50,11.00,
1980/04/25,0.00,19.75,27.00,12.50,
1980/04/26,0.00,19.25,28.00,10.50,
1980/04/27,0.00,17.50,24.00,11.00,
1980/04/28,0.00,19.50,26.00,13.00,
1980/04/29,0.00,18.75,24.50,13.00,
1980/04/30,0.00,18.50,23.00,14.00,
1980/05/01,0.00,19.25,24.50,14.00,
1980/05/02,0.00,16.75,21.00,12.50,
1980/05/03,0.00,18.75,26.00,11.50,
1980/05/04,0.00,19.50,27.00,12.00,
1980/05/05,0.00,19.00,23.00,15.00,
1980/05/06,0.00,18.50,24.00,13.00,
1980/05/07,0.00,19.50,26.00,13.00,
1980/05/08,0.00,20.75,27.50,14.00,
1980/05/09,0.00,19.50,25.00,14.00,
1980/05/10,0.00,20.00,27.50,12.50,
1980/05/11,0.00,19.00,25.00,13.00,
1980/05/12,0.00,20.25,28.00,12.50,
1980/05/13,0.00,20.50,28.00,13.00,
1980/05/14,0.00,19.75,25.50,14.00,
1980/05/15,0.00,19.75,27.00,12.50,
1980/05/16,0.00,21.50,28.50,14.50,
1980/05/17,0.00,19.75,29.50,10.00,
1980/05/18,0.00,20.75,29.00,12.50,
1980/05/19,0.00,24.25,30.50,18.00,
1980/05/20,0.00,19.50,28.00,11.00,
1980/05/21,0.00,19.75,28.00,11.50,
1980/05/22,0.00,19.75,27.50,12.00,
1980/05/23,0.00,23.50,31.50,15.50,
1980/05/24,0.00,21.00,28.50,13.50,
1980/05/25,0.00,18.75,26.50,11.00,
1980/05/26,0.00,17.00,23.00,11.00,
1980/05/27,0.00,20.25,28.00,12.50,
1980/05/28,0.00,20.50,29.00,12.00,
1980/05/29,0.00,23.00,34.50,11.50,
1980/05/30,0.00,23.00,32.00,14.00,
1980/05/31,0.00,25.00,33.00,17.00,
1980/06/01,0.00,22.00,27.50,16.50,
1980/06/02,0.00,19.75,28.00,11.50,
1980/06/03,0.00,19.75,26.00,13.50,
1980/06/04,0.00,21.75,32.00,11.50,
1980/06/05,0.00,25.50,36.00,15.00,
1980/06/06,0.00,24.75,33.00,16.50,
1980/06/07,0.00,24.05,31.60,16.50,
1980/06/08,0.00,23.25,31.00,15.50,
1980/06/09,0.00,25.00,31.50,18.50,
1980/06/10,0.00,23.25,29.00,17.50,
1980/06/11,0.00,23.00,29.50,16.50,
1980/06/12,0.00,22.50,28.50,16.50,
1980/06/13,0.00,23.25,30.50,16.00,
1980/06/14,0.00,25.00,32.00,18.00,
1980/06/15,0.00,24.75,32.00,17.50,
1980/06/16,0.00,25.75,31.50,20.00,
1980/06/17,0.00,24.00,30.00,18.00,
1980/06/18,0.00,25.25,30.00,20.50,
1980/06/19,0.00,24.75,31.00,18.50,
1980/06/20,0.00,25.75,32.00,19.50,
1980/06/21,0.00,24.75,31.00,18.50,
1980/06/22,0.00,24.25,30.50,18.00,
1980/06/23,0.00,25.00,30.50,19.50,
1980/06/24,0.00,26.00,30.50,21.50,
1980/06/25,0.00,26.00,31.50,20.50,
1980/06/26,0.00,26.50,32.50,20.50,
1980/06/27,0.00,27.00,31.50,22.50,
1980/06/28,0.00,27.25,34.50,20.00,
1980/06/29,0.00,27.00,32.50,21.50,
1980/06/30,0.00,27.25,35.00,19.50,
1980/07/01,0.00,30.50,36.50,24.50,
1980/07/02,0.00,28.00,34.00,22.00,
1980/07/03,0.00,27.50,33.00,22.00,
1980/07/04,0.00,25.75,31.50,20.00,
1980/07/05,0.00,26.75,31.50,22.00,
1980/07/06,0.00,27.00,35.00,19.00,
1980/07/07,0.00,27.25,34.00,20.50,
1980/07/08,0.00,25.25,30.00,20.50,
1980/07/09,0.00,25.75,30.00,21.50,
1980/07/10,0.00,26.50,32.00,21.00,
1980/07/11,0.00,29.50,35.00,24.00,
1980/07/12,0.00,30.00,35.00,25.00,
1980/07/13,0.00,26.75,32.00,21.50,
1980/07/14,0.00,27.50,35.00,20.00,
1980/07/15,0.00,29.25,34.00,24.50,
1980/07/16,0.00,27.50,33.00,22.00,
1980/07/17,0.00,28.00,33.00,23.00,
1980/07/18,0.00,28.50,34.00,23.00,
1980/07/19,0.00,26.75,31.00,22.50,
1980/07/20,0.00,28.00,35.00,21.00,
1980/07/21,0.00,29.00,36.00,22.00,
1980/07/22,0.00,27.00,33.00,21.00,
1980/07/23,0.00,29.25,36.00,22.50,
1980/07/24,0.00,29.50,37.00,22.00,
1980/07/25,0.00,30.75,38.50,23.00,
1980/07/26,0.00,28.75,35.00,22.50,
1980/07/27,0.00,31.00,37.50,24.50,
1980/07/28,0.00,31.00,39.50,22.50,
1980/07/29,0.00,27.25,35.00,19.50,
1980/07/30,0.00,29.75,36.50,23.00,
1980/07/31,0.00,27.75,36.00,19.50,
1980/08/01,0.00,28.50,35.00,22.00,
1980/08/02,0.00,27.50,32.00,23.00,
1980/08/03,0.00,26.00,31.00,21.00,
1980/08/04,0.00,28.75,34.50,23.00,
1980/08/05,0.00,25.50,32.00,19.00,
1980/08/06,0.00,31.00,37.00,25.00,
1980/08/07,0.00,28.00,33.00,23.00,
1980/08/08,0.00,29.00,33.00,25.00,
1980/08/09,0.00,28.25,33.50,23.00,
1980/08/10,0.00,27.50,31.50,23.50,
1980/08/11,0.00,26.75,31.00,22.50,
1980/08/12,0.00,26.75,30.50,23.00,
1980/08/13,0.00,27.50,31.00,24.00,
1980/08/14,0.00,28.50,32.50,24.50,
1980/08/15,0.00,27.25,30.50,24.00,
1980/08/16,0.00,27.50,33.00,22.00,
1980/08/17,0.00,27.00,31.50,22.50,
1980/08/18,0.00,25.75,30.50,21.00,
1980/08/19,0.00,26.50,31.00,22.00,
1980/08/20,0.00,28.00,33.50,22.50,
1980/08/21,0.00,28.25,35.00,21.50,
1980/08/22,0.00,28.50,34.00,23.00,
1980/08/23,0.00,28.25,34.50,22.00,
1980/08/24,0.00,29.25,34.50,24.00,
1980/08/25,0.00,29.25,34.00,24.50,
1980/08/26,0.00,26.50,33.50,19.50,
1980/08/27,0.00,26.75,33.00,20.50,
1980/08/28,0.00,25.50,31.50,19.50,
1980/08/29,0.00,26.25,32.50,20.00,
1980/08/30,0.00,28.75,36.50,21.00,
1980/08/31,0.00,28.00,33.00,23.00,
1980/09/01,0.00,25.50,30.50,20.50,
1980/09/02,0.00,28.25,32.00,24.50,
1980/09/03,0.00,27.75,33.50,22.00,
1980/09/04,0.00,28.25,33.00,23.50,
1980/09/05,0.00,30.25,36.00,24.50,
1980/09/06,0.00,28.50,33.00,24.00,
1980/09/07,0.00,27.75,32.00,23.50,
1980/09/08,0.00,28.00,34.00,22.00,
1980/09/09,0.00,26.50,32.50,20.50,
1980/09/10,0.00,26.00,32.00,20.00,
1980/09/11,0.00,26.00,31.00,21.00,
1980/09/12,0.00,27.75,33.50,22.00,
1980/09/13,0.00,26.00,31.00,21.00,
1980/09/14,0.00,28.00,34.00,22.00,
1980/09/15,0.00,26.75,30.50,23.00,
1980/09/16,0.00,29.00,35.50,22.50,
1980/09/17,0.00,26.50,32.00,21.00,
1980/09/18,0.00,27.00,35.00,19.00,
1980/09/19,0.00,29.00,33.00,25.00,
1980/09/20,0.00,29.50,34.00,25.00,
1980/09/21,0.00,27.25,33.00,21.50,
1980/09/22,0.00,29.25,35.50,23.00,
1980/09/23,0.00,27.25,33.50,21.00,
1980/09/24,0.00,26.00,31.00,21.00,
1980/09/25,0.00,25.75,33.00,18.50,
1980/09/26,0.00,25.50,30.50,20.50,
1980/09/27,0.00,24.75,28.50,21.00,
1980/09/28,0.00,25.50,30.00,21.00,
1980/09/29,0.00,26.00,31.00,21.00,
1980/09/30,21.50,22.00,23.00,21.00,
1980/10/01,0.00,25.75,30.00,21.50,
1980/10/02,0.00,25.00,29.00,21.00,
1980/10/03,0.00,24.50,30.00,19.00,
1980/10/04,0.00,27.00,33.00,21.00,
1980/10/05,0.00,25.75,30.00,21.50,
1980/10/06,0.00,27.50,32.00,23.00,
1980/10/07,0.00,27.25,30.00,24.50,
1980/10/08,0.00,27.25,30.50,24.00,
1980/10/09,0.00,23.50,28.00,19.00,
1980/10/10,0.00,24.50,30.50,18.50,
1980/10/11,0.00,25.25,30.00,20.50,
1980/10/12,0.00,25.75,31.00,20.50,
1980/10/13,0.00,27.00,33.00,21.00,
1980/10/14,0.00,25.25,30.50,20.00,
1980/10/15,0.00,25.25,30.50,20.00,
1980/10/16,0.00,24.50,30.50,18.50,
1980/10/17,0.00,23.25,30.00,16.50,
1980/10/18,0.00,21.75,28.00,15.50,
1980/10/19,0.00,24.75,30.50,19.00,
1980/10/20,0.00,25.25,30.50,20.00,
1980/10/21,0.00,25.00,31.00,19.00,
1980/10/22,0.00,27.00,32.00,22.00,
1980/10/23,23.50,27.25,31.50,23.00,
1980/10/24,0.00,26.50,33.00,20.00,
1980/10/25,0.00,27.00,32.00,22.00,
1980/10/26,0.00,25.50,30.50,20.50,
1980/10/27,0.00,26.25,33.50,19.00,
1980/10/28,0.00,26.50,30.50,22.50,
1980/10/29,0.00,25.75,31.00,20.50,
1980/10/30,0.00,25.00,30.50,19.50,
1980/10/31,0.00,25.50,28.00,23.00,
1980/11/01,0.00,26.25,30.50,22.00,
1980/11/02,0.00,24.75,30.00,19.50,
1980/11/03,0.00,23.25,32.00,14.50,
1980/11/04,0.00,22.75,30.00,15.50,
1980/11/05,0.00,27.25,34.50,20.00,
1980/11/06,0.00,27.25,33.50,21.00,
1980/11/07,0.00,27.25,35.50,19.00,
1980/11/08,0.00,26.00,35.00,17.00,
1980/11/09,0.00,24.50,32.50,16.50,
1980/11/10,0.00,23.50,33.50,13.50,
1980/11/11,0.00,22.50,30.00,15.00,
1980/11/12,0.00,22.25,31.50,13.00,
1980/11/13,0.00,24.75,31.50,18.00,
1980/11/14,0.00,25.75,32.50,19.00,
1980/11/15,0.00,23.25,31.00,15.50,
1980/11/16,0.00,19.25,24.00,14.50,
1980/11/17,0.00,20.00,26.50,13.50,
1980/11/18,0.00,19.00,24.00,14.00,
1980/11/19,0.00,19.75,22.00,17.50,
1980/11/20,0.00,20.25,27.50,13.00,
1980/11/21,0.00,18.25,22.00,14.50,
1980/11/22,0.00,19.25,24.50,14.00,
1980/11/23,0.00,18.25,21.50,15.00,
1980/11/24,0.00,18.00,22.00,14.00,
1980/11/25,0.00,16.25,19.50,13.00,
1980/11/26,0.00,15.00,18.00,12.00,
1980/11/27,0.00,16.50,22.00,11.00,
1980/11/28,0.00,19.00,24.00,14.00,
1980/11/29,0.00,17.50,22.50,12.50,
1980/11/30,0.00,16.75,19.50,14.00,
1980/12/01,0.00,20.00,28.00,12.00,
1980/12/02,0.00,20.25,26.00,14.50,
1980/12/03,0.00,16.50,22.00,11.00,
1980/12/04,0.00,16.00,21.50,10.50,
1980/12/05,0.00,15.50,19.50,11.50,
1980/12/06,0.00,17.00,23.00,11.00,
1980/12/07,0.00,18.50,26.00,11.00,
1980/12/08,0.00,16.00,23.00,9.00,
1980/12/09,0.00,18.25,25.00,11.50,
1980/12/10,0.00,14.50,19.00,10.00,
1980/12/11,0.00,17.25,25.00,9.50,
1980/12/12,0.00,18.75,27.00,10.50,
1980/12/13,0.00,21.25,28.00,14.50,
1980/12/14,0.00,21.00,27.00,15.00,
1980/12/15,0.00,19.75,28.00,11.50,
1980/12/16,0.00,20.75,28.00,13.50,
1980/12/17,0.00,18.50,27.00,10.00,
1980/12/18,0.00,19.50,27.00,12.00,
1980/12/19,0.00,19.00,28.00,10.00,
1980/12/20,0.00,19.50,26.50,12.50,
1980/12/21,0.00,21.00,30.50,11.50,
1980/12/22,0.00,20.75,27.00,14.50,
1980/12/23,0.00,20.25,24.00,16.50,
1980/12/24,0.00,21.75,30.00,13.50,
1980/12/25,0.00,22.50,31.00,14.00,
1980/12/26,0.00,22.50,29.00,16.00,
1980/12/27,0.00,21.75,30.00,13.50,
1980/12/28,0.00,21.25,27.00,15.50,
1980/12/29,0.00,19.25,24.00,14.50,
1980/12/30,0.00,16.75,22.00,11.50,
1980/12/31,0.00,20.75,30.00,11.50,
1981/01/01,0.00,21.25,27.00,15.50,
1981/01/02,0.00,22.50,30.50,14.50,
1981/01/03,0.00,20.75,26.00,15.50,
1981/01/04,0.00,20.75,28.00,13.50,
1981/01/05,0.00,20.25,23.50,17.00,
1981/01/06,10.50,17.50,21.50,13.50,
1981/01/07,2.50,17.00,23.00,11.00,
1981/01/08,0.00,18.25,23.50,13.00,
1981/01/09,0.00,18.25,22.00,14.50,
1981/01/10,0.00,21.75,26.00,17.50,
1981/01/11,5.50,20.00,24.00,16.00,
1981/01/12,0.00,19.50,25.00,14.00,
1981/01/13,0.00,19.00,24.00,14.00,
1981/01/14,0.00,18.25,23.00,13.50,
1981/01/15,0.00,18.25,22.00,14.50,
1981/01/16,7.50,18.00,21.00,15.00,
1981/01/17,0.00,18.00,22.00,14.00,
1981/01/18,0.00,17.75,24.00,11.50,
1981/01/19,0.00,17.75,23.00,12.50,
1981/01/20,0.00,16.75,22.00,11.50,
1981/01/21,0.00,17.75,25.00,10.50,
1981/01/22,0.00,17.50,24.00,11.00,
1981/01/23,0.00,17.25,23.00,11.50,
1981/01/24,0.00,17.75,24.00,11.50,
1981/01/25,8.50,16.25,22.00,10.50,
1981/01/26,0.00,18.50,25.50,11.50,
1981/01/27,0.00,16.50,23.00,10.00,
1981/01/28,0.00,18.00,24.50,11.50,
1981/01/29,0.00,17.75,25.00,10.50,
1981/01/30,0.00,18.25,24.00,12.50,
1981/01/31,0.00,19.00,26.50,11.50,
1981/02/01,0.00,15.50,21.00,10.00,
1981/02/02,0.00,18.00,25.00,11.00,
1981/02/03,0.00,17.25,24.00,10.50,
1981/02/04,0.00,18.25,25.00,11.50,
1981/02/05,0.00,18.75,23.00,14.50,
1981/02/06,0.00,19.50,26.00,13.00,
1981/02/07,0.00,18.75,26.00,11.50,
1981/02/08,0.00,19.25,28.00,10.50,
1981/02/09,0.00,17.50,21.00,14.00,
1981/02/10,0.00,19.00,25.00,13.00,
1981/02/11,0.00,18.75,23.00,14.50,
1981/02/12,0.00,22.25,30.00,14.50,
1981/02/13,0.00,23.75,29.00,18.50,
1981/02/14,0.00,22.25,27.00,17.50,
1981/02/15,0.00,20.75,27.00,14.50,
1981/02/16,0.00,19.75,25.00,14.50,
1981/02/17,0.00,18.50,27.00,10.00,
1981/02/18,0.00,22.25,26.50,18.00,
1981/02/19,0.00,23.75,30.00,17.50,
1981/02/20,0.00,22.00,29.50,14.50,
1981/02/21,0.00,20.50,26.00,15.00,
1981/02/22,0.00,17.00,22.50,11.50,
1981/02/23,0.00,21.25,30.50,12.00,
1981/02/24,0.00,20.00,28.50,11.50,
1981/02/25,0.00,22.50,28.00,17.00,
1981/02/26,0.00,16.50,23.00,10.00,
1981/02/27,0.00,21.00,27.50,14.50,
1981/02/28,0.00,19.25,27.00,11.50,
1981/03/01,0.00,18.50,23.00,14.00,
1981/03/02,15.50,20.75,24.00,17.50,
1981/03/03,0.00,17.30,20.60,14.00,
1981/03/04,0.00,17.75,22.50,13.00,
1981/03/05,0.00,16.75,19.50,14.00,
1981/03/06,0.00,17.00,23.00,11.00,
1981/03/07,0.00,18.25,23.00,13.50,
1981/03/08,0.00,19.00,23.50,14.50,
1981/03/09,0.00,21.00,28.00,14.00,
1981/03/10,0.00,23.75,30.50,17.00,
1981/03/11,0.00,18.75,23.00,14.50,
1981/03/12,0.00,18.75,26.00,11.50,
1981/03/13,0.00,20.00,24.00,16.00,
1981/03/14,0.00,17.00,19.50,14.50,
1981/03/15,0.00,19.75,28.50,11.00,
1981/03/16,0.00,20.00,25.00,15.00,
1981/03/17,0.00,21.00,28.00,14.00,
1981/03/18,0.00,17.25,24.50,10.00,
1981/03/19,0.00,17.00,22.00,12.00,
1981/03/20,0.00,16.50,20.00,13.00,
1981/03/21,0.00,15.25,19.50,11.00,
1981/03/22,0.00,20.00,30.00,10.00,
1981/03/23,0.00,19.75,28.50,11.00,
1981/03/24,0.00,19.25,26.50,12.00,
1981/03/25,0.00,19.75,28.50,11.00,
1981/03/26,0.00,18.75,25.00,12.50,
1981/03/27,0.00,19.75,28.00,11.50,
1981/03/28,0.00,16.50,20.50,12.50,
1981/03/29,0.00,17.50,24.50,10.50,
1981/03/30,0.00,15.75,20.00,11.50,
1981/03/31,0.00,17.50,24.00,11.00,
1981/04/01,0.00,19.25,24.50,14.00,
1981/04/02,0.00,19.00,25.00,13.00,
1981/04/03,0.00,18.25,24.50,12.00,
1981/04/04,0.00,17.25,23.50,11.00,
1981/04/05,0.00,18.50,24.50,12.50,
1981/04/06,0.00,19.75,28.00,11.50,
1981/04/07,0.00,20.00,29.50,10.50,
1981/04/08,0.00,20.00,28.50,11.50,
1981/04/09,0.00,18.75,24.00,13.50,
1981/04/10,0.00,20.25,26.00,14.50,
1981/04/11,0.00,17.25,22.00,12.50,
1981/04/12,0.00,18.75,26.00,11.50,
1981/04/13,0.00,20.75,28.00,13.50,
1981/04/14,0.00,18.00,24.50,11.50,
1981/04/15,0.00,18.00,24.50,11.50,
1981/04/16,0.00,17.50,24.50,10.50,
1981/04/17,0.00,19.75,28.00,11.50,
1981/04/18,0.00,18.00,24.50,11.50,
1981/04/19,0.00,18.50,26.00,11.00,
1981/04/20,0.00,17.50,24.50,10.50,
1981/04/21,0.00,19.75,28.00,11.50,
1981/04/22,0.00,17.50,23.00,12.00,
1981/04/23,0.00,18.50,23.00,14.00,
1981/04/24,0.00,20.50,28.00,13.00,
1981/04/25,0.00,18.00,25.00,11.00,
1981/04/26,0.00,17.25,23.00,11.50,
1981/04/27,0.00,18.75,24.00,13.50,
1981/04/28,0.00,19.25,27.50,11.00,
1981/04/29,0.00,19.00,28.00,10.00,
1981/04/30,0.00,18.00,25.00,11.00,
1981/05/01,0.00,19.75,26.50,13.00,
1981/05/02,0.00,19.25,24.50,14.00,
1981/05/03,0.00,20.00,28.50,11.50,
1981/05/04,0.00,17.50,21.50,13.50,
1981/05/05,0.00,19.75,29.00,10.50,
1981/05/06,0.00,21.25,30.50,12.00,
1981/05/07,0.00,21.00,28.00,14.00,
1981/05/08,0.00,21.75,27.00,16.50,
1981/05/09,0.00,21.00,28.00,14.00,
1981/05/10,0.00,18.50,25.00,12.00,
1981/05/11,0.00,18.75,26.00,11.50,
1981/05/12,0.00,15.75,21.50,10.00,
1981/05/13,0.00,21.25,26.00,16.50,
1981/05/14,0.00,19.75,25.00,14.50,
1981/05/15,0.00,21.75,27.00,16.50,
1981/05/16,0.00,21.50,28.00,15.00,
1981/05/17,0.00,21.25,28.00,14.50,
1981/05/18,0.00,22.50,30.00,15.00,
1981/05/19,0.00,22.75,29.50,16.00,
1981/05/20,0.00,23.50,30.50,16.50,
1981/05/21,0.00,22.00,28.00,16.00,